Home   Weather   Wausau   Past weeks
Flag for USA

Past Weather in Wausau, Wisconsin, USA — Yesterday and Last 2 Weeks

Now
45 °F

Overcast.


Feels Like: 39 °F
Forecast: 44 / 37 °F
Wind: 12 mph from Southeast

Location: Mosinee / Central Wisconsin

Current Time: Oct 22, 2019 at 1:08:29 am

Latest Report: Oct 22, 2019 at 12:35 am


Visibility: 10 mi

Pressure: 29.27 "Hg

Humidity: 76%

Dew Point: 37 °F

Location of WausauLocation

Past Weather in Wausau — Graph

°F

Wausau Temperature Yesterday

Maximum temperature yesterday: 57 °F (at 3:47 pm)
Minimum temperature yesterday: 43 °F (at 1:15 am)
Average temperature yesterday: 47 °F

High & Low Weather Summary for the Past Weeks

 TemperatureHumidityPressure
High66 °F (Oct 8, 12:47 pm)100% (Oct 8, 2:15 am)30.18 "Hg (Oct 8, 2:15 am)
Low30 °F (Oct 12, 7:45 am)39% (Oct 20, 3:47 pm)29.23 "Hg (Oct 21, 2:47 pm)
Average44 °F82%29.89 "Hg
* Reported Oct 7 12:15 am — Oct 22 12:15 am, Wausau. Weather by CustomWeather, © 2019

Note: Actual official high and low records may vary slightly from our data, if they occured in-between our weather recording intervals... More about our weather records

Advertising

Wausau Weather History for the Previous 24 Hours

Scroll right to see more
 ConditionsComfort  
Time TempWeatherWind HumidityBarometerVisibility
12:15 am
Tue, Oct 22
45 °FOvercast.13 mph76%29.27 "Hg10 mi
11:55 pm
Mon, Oct 21
45 °FOvercast.10 mph76%29.28 "Hg10 mi
11:35 pm45 °FOvercast.12 mph76%29.28 "Hg10 mi
11:15 pm45 °FOvercast.13 mph76%29.29 "Hg10 mi
10:55 pm45 °FMostly cloudy.14 mph76%29.30 "Hg10 mi
10:35 pm45 °FPartly cloudy.13 mph76%29.30 "Hg10 mi
10:15 pm45 °FPartly cloudy.12 mph76%29.31 "Hg10 mi
9:55 pm45 °FMostly cloudy.9 mph76%29.31 "Hg10 mi
8:55 pm46 °FPassing clouds.14 mph71%29.32 "Hg10 mi
7:47 pm52 °FPassing clouds.17 mph62%29.32 "Hg10 mi
6:47 pm54 °FPassing clouds.20 mph63%29.29 "Hg10 mi
5:47 pm55 °FScattered clouds.14 mph67%29.26 "Hg10 mi
4:48 pm57 °FScattered clouds.15 mph82%29.25 "Hg10 mi
3:47 pm57 °FPartly sunny.15 mph88%29.24 "Hg10 mi
2:47 pm54 °FLow clouds.16 mph100%29.23 "Hg7 mi
1:47 pm50 °FDrizzle. Low clouds.12 mph94%29.24 "Hg7 mi
12:48 pm50 °FRain. Low clouds.18 mph94%29.29 "Hg3 mi
11:48 am48 °FLight rain. Mostly cloudy.16 mph100%29.38 "Hg4 mi
10:50 am50 °FLight rain. Mostly cloudy.17 mph88%29.46 "Hg10 mi
9:48 am50 °FLight rain. Overcast.22 mph88%29.49 "Hg10 mi
8:50 am50 °FMore clouds than sun.17 mph88%29.57 "Hg10 mi
7:48 am48 °FMore clouds than sun.15 mph87%29.61 "Hg10 mi
6:50 am46 °FPassing clouds.15 mph87%29.67 "Hg10 mi
5:48 am46 °FMostly cloudy.16 mph82%29.73 "Hg10 mi
5:35 am46 °FMostly cloudy.14 mph82%29.73 "Hg10 mi
5:15 am45 °FPartly cloudy.13 mph81%29.75 "Hg7 mi
4:35 am45 °FOvercast.10 mph76%29.77 "Hg10 mi
4:15 am45 °FPassing clouds.9 mph76%29.80 "Hg10 mi
3:55 am45 °FClear.12 mph76%29.80 "Hg10 mi
3:35 am45 °FClear.12 mph76%29.82 "Hg10 mi
3:15 am45 °FClear.10 mph76%29.82 "Hg10 mi
2:55 am45 °FClear.9 mph76%29.83 "Hg10 mi
2:35 am45 °FClear.8 mph76%29.84 "Hg10 mi
2:15 am43 °FClear.8 mph87%29.83 "Hg7 mi
1:55 am43 °FClear.9 mph93%29.84 "Hg10 mi
1:35 am43 °FClear.7 mph93%29.88 "Hg7 mi
1:15 am43 °FFog.7 mph87%29.89 "Hg5 mi
Weather by CustomWeather, © 2019

See weather overview